Time,TemperatureF,DewpointF,PressureIn,WindDirection,WindDirectionDegrees,WindSpeedMPH,WindSpeedGustMPH,Humidity,HourlyPrecipIn,Conditions,Clouds,dailyrainin,SoftwareType,DateUTC
2013-10-10 00:00:00,56.8,49.0,30.02,ESE,104,0.0,0.0,75,0.00,CLR,,0.00,WeatherDisplay:10.37,2013-10-10 05:00:00,
2013-10-10 00:05:00,56.7,48.5,30.03,ESE,104,0.0,0.0,74,0.00,CLR,,0.00,WeatherDisplay:10.37,2013-10-10 05:05:00,
2013-10-10 00:10:00,56.5,48.7,30.03,ESE,104,0.0,0.0,75,0.00,CLR,,0.00,WeatherDisplay:10.37,2013-10-10 05:10:00,
2013-10-10 00:15:00,56.1,48.3,30.02,ESE,103,0.0,0.0,75,0.00,CLR,,0.00,WeatherDisplay:10.37,2013-10-10 05:15:00,
2013-10-10 00:20:00,55.8,48.3,30.02,ESE,104,0.0,0.0,76,0.00,CLR,,0.00,WeatherDisplay:10.37,2013-10-10 05:20:00,
2013-10-10 00:25:00,55.4,48.3,30.02,ESE,103,0.0,0.0,77,0.00,CLR,,0.00,WeatherDisplay:10.37,2013-10-10 05:25:00,
2013-10-10 00:30:00,55.1,48.4,30.02,ESE,104,0.0,0.0,78,0.00,CLR,,0.00,WeatherDisplay:10.37,2013-10-10 05:30:00,
2013-10-10 00:35:00,54.8,48.4,30.02,ESE,103,0.0,0.0,79,0.00,CLR,,0.00,WeatherDisplay:10.37,2013-10-10 05:35:00,
2013-10-10 00:40:00,54.4,48.4,30.02,ESE,104,0.0,0.0,80,0.00,CLR,,0.00,WeatherDisplay:10.37,2013-10-10 05:40:00,
2013-10-10 00:45:00,54.1,48.1,30.02,ESE,104,0.0,0.0,80,0.00,CLR,,0.00,WeatherDisplay:10.37,2013-10-10 05:45:00,
2013-10-10 00:50:00,53.8,48.1,30.02,ESE,103,0.0,0.0,81,0.00,CLR,,0.00,WeatherDisplay:10.37,2013-10-10 05:50:00,
2013-10-10 00:55:00,53.6,48.2,30.02,ESE,103,0.0,0.0,82,0.00,CLR,,0.00,WeatherDisplay:10.37,2013-10-10 05:55:00,
2013-10-10 01:00:00,53.4,48.0,30.02,ESE,103,0.0,0.0,82,0.00,CLR,,0.00,WeatherDisplay:10.37,2013-10-10 06:00:00,
2013-10-10 01:05:00,53.3,48.3,30.02,ESE,103,0.0,0.0,83,0.00,CLR,,0.00,WeatherDisplay:10.37,2013-10-10 06:05:00,
2013-10-10 01:10:00,53.2,48.2,30.01,ESE,103,0.0,0.0,83,0.00,CLR,,0.00,WeatherDisplay:10.37,2013-10-10 06:10:00,
2013-10-10 01:15:00,53.1,48.1,30.01,ESE,103,0.0,0.0,83,0.00,CLR,,0.00,WeatherDisplay:10.37,2013-10-10 06:15:00,
2013-10-10 01:20:00,53.1,48.1,30.02,ESE,104,0.0,0.0,83,0.00,CLR,,0.00,WeatherDisplay:10.37,2013-10-10 06:20:00,
2013-10-10 01:25:00,53.1,48.4,30.02,ESE,103,0.0,0.0,84,0.00,CLR,,0.00,WeatherDisplay:10.37,2013-10-10 06:25:00,
2013-10-10 01:30:00,53.0,48.0,30.01,ESE,103,0.0,0.0,83,0.00,CLR,,0.00,WeatherDisplay:10.37,2013-10-10 06:30:00,
2013-10-10 01:35:00,52.8,48.1,30.01,ESE,104,0.0,0.0,84,0.00,CLR,,0.00,WeatherDisplay:10.37,2013-10-10 06:35:00,
2013-10-10 01:40:00,52.7,48.3,30.01,ESE,103,0.0,0.0,85,0.00,CLR,,0.00,WeatherDisplay:10.37,2013-10-10 06:40:00,
2013-10-10 01:45:00,52.6,48.2,30.02,ESE,104,0.0,0.0,85,0.00,CLR,,0.00,WeatherDisplay:10.37,2013-10-10 06:45:00,
2013-10-10 01:50:00,52.6,48.5,30.02,ESE,103,0.0,0.0,86,0.00,CLR,,0.00,WeatherDisplay:10.37,2013-10-10 06:50:00,
2013-10-10 01:55:00,52.6,48.5,30.02,ESE,103,0.0,0.0,86,0.00,CLR,,0.00,WeatherDisplay:10.37,2013-10-10 06:55:00,
2013-10-10 02:00:00,52.6,48.5,30.01,ESE,103,0.0,0.0,86,0.00,CLR,,0.00,WeatherDisplay:10.37,2013-10-10 07:00:00,
2013-10-10 02:05:00,52.7,48.3,30.02,ESE,103,0.0,0.0,85,0.00,CLR,,0.00,WeatherDisplay:10.37,2013-10-10 07:05:00,
2013-10-10 02:10:00,52.7,48.3,30.02,ESE,104,0.0,0.0,85,0.00,CLR,,0.00,WeatherDisplay:10.37,2013-10-10 07:10:00,
2013-10-10 02:15:00,52.6,48.2,30.02,ESE,103,0.0,0.0,85,0.00,CLR,,0.00,WeatherDisplay:10.37,2013-10-10 07:15:00,
2013-10-10 02:20:00,52.7,48.3,30.02,ESE,104,0.0,0.0,85,0.00,CLR,,0.00,WeatherDisplay:10.37,2013-10-10 07:20:00,
2013-10-10 02:25:00,52.9,48.2,30.02,ESE,104,0.0,0.0,84,0.00,CLR,,0.00,WeatherDisplay:10.37,2013-10-10 07:25:00,
2013-10-10 02:30:00,53.4,48.7,30.01,ESE,104,0.0,0.0,84,0.00,CLR,,0.00,WeatherDisplay:10.37,2013-10-10 07:30:00,
2013-10-10 02:35:00,53.9,48.5,30.02,ESE,103,0.0,0.0,82,0.00,CLR,,0.00,WeatherDisplay:10.37,2013-10-10 07:35:00,
2013-10-10 02:40:00,54.4,48.7,30.02,ESE,104,0.0,0.0,81,0.00,CLR,,0.00,WeatherDisplay:10.37,2013-10-10 07:40:00,
2013-10-10 02:45:00,54.7,48.6,30.02,ESE,103,0.0,0.0,80,0.00,CLR,,0.00,WeatherDisplay:10.37,2013-10-10 07:45:00,
2013-10-10 02:50:00,55.1,49.0,30.02,SSE,148,0.1,1.2,80,0.00,CLR,,0.00,WeatherDisplay:10.37,2013-10-10 07:50:00,
2013-10-10 02:55:00,55.3,48.9,30.02,SE,145,0.0,0.0,79,0.00,CLR,,0.00,WeatherDisplay:10.37,2013-10-10 07:55:00,
2013-10-10 03:00:00,55.4,48.7,30.01,SE,145,0.0,0.0,78,0.00,CLR,,0.00,WeatherDisplay:10.37,2013-10-10 08:00:00,
2013-10-10 03:05:00,55.6,48.8,30.01,SE,131,0.0,0.0,78,0.00,CLR,,0.00,WeatherDisplay:10.37,2013-10-10 08:05:00,
2013-10-10 03:10:00,55.7,48.9,30.01,SE,134,0.0,0.0,78,0.00,CLR,,0.00,WeatherDisplay:10.37,2013-10-10 08:10:00,
2013-10-10 03:15:00,55.7,49.3,30.01,South,191,0.0,0.0,79,0.00,CLR,,0.00,WeatherDisplay:10.37,2013-10-10 08:15:00,
2013-10-10 03:20:00,55.6,49.2,30.01,South,191,0.0,0.0,79,0.00,CLR,,0.00,WeatherDisplay:10.37,2013-10-10 08:20:00,
2013-10-10 03:25:00,55.4,49.0,30.01,South,191,0.0,0.0,79,0.00,CLR,,0.00,WeatherDisplay:10.37,2013-10-10 08:25:00,
2013-10-10 03:30:00,55.3,49.2,30.01,SW,222,0.1,0.0,80,0.00,CLR,,0.00,WeatherDisplay:10.37,2013-10-10 08:30:00,
2013-10-10 03:35:00,55.2,49.1,30.01,SW,222,0.0,0.0,80,0.00,CLR,,0.00,WeatherDisplay:10.37,2013-10-10 08:35:00,
2013-10-10 03:40:00,55.1,49.0,30.01,SW,224,0.0,0.0,80,0.00,CLR,,0.00,WeatherDisplay:10.37,2013-10-10 08:40:00,
2013-10-10 03:45:00,55.0,49.3,30.01,SW,224,0.0,0.0,81,0.00,CLR,,0.00,WeatherDisplay:10.37,2013-10-10 08:45:00,
2013-10-10 03:50:00,54.8,49.1,30.01,SW,225,0.0,0.0,81,0.00,CLR,,0.00,WeatherDisplay:10.37,2013-10-10 08:50:00,
2013-10-10 03:55:00,54.6,48.9,30.01,SW,225,0.0,0.0,81,0.00,CLR,,0.00,WeatherDisplay:10.37,2013-10-10 08:55:00,
2013-10-10 04:00:00,54.5,49.1,30.01,SW,224,0.0,0.0,82,0.00,CLR,,0.00,WeatherDisplay:10.37,2013-10-10 09:00:00,
2013-10-10 04:05:00,54.3,48.9,30.01,SW,225,0.0,0.0,82,0.00,CLR,,0.00,WeatherDisplay:10.37,2013-10-10 09:05:00,
2013-10-10 04:10:00,54.3,49.2,30.01,SW,224,0.0,0.0,83,0.00,CLR,,0.00,WeatherDisplay:10.37,2013-10-10 09:10:00,
2013-10-10 04:15:00,54.2,49.1,30.01,SSE,152,0.0,0.0,83,0.00,CLR,,0.00,WeatherDisplay:10.37,2013-10-10 09:15:00,
2013-10-10 04:20:00,54.1,49.4,30.01,SSE,156,0.0,0.0,84,0.00,CLR,,0.00,WeatherDisplay:10.37,2013-10-10 09:20:00,
2013-10-10 04:25:00,54.0,49.3,30.01,SSE,156,0.0,0.0,84,0.00,CLR,,0.00,WeatherDisplay:10.37,2013-10-10 09:25:00,
2013-10-10 04:30:00,53.9,48.9,30.01,SSE,156,0.0,0.0,83,0.00,CLR,,0.00,WeatherDisplay:10.37,2013-10-10 09:30:00,
2013-10-10 04:35:00,53.8,49.1,30.01,SSE,156,0.0,0.0,84,0.00,CLR,,0.00,WeatherDisplay:10.37,2013-10-10 09:35:00,
2013-10-10 04:40:00,53.7,49.0,30.01,SSE,156,0.0,0.0,84,0.00,CLR,,0.00,WeatherDisplay:10.37,2013-10-10 09:40:00,
2013-10-10 04:45:00,53.7,49.3,30.01,SSE,156,0.0,0.0,85,0.00,CLR,,0.00,WeatherDisplay:10.37,2013-10-10 09:45:00,
2013-10-10 04:50:00,53.7,49.3,30.02,SSE,156,0.0,0.0,85,0.00,CLR,,0.00,WeatherDisplay:10.37,2013-10-10 09:50:00,
2013-10-10 04:55:00,53.6,49.2,30.02,SSE,156,0.0,0.0,85,0.00,CLR,,0.00,WeatherDisplay:10.37,2013-10-10 09:55:00,
2013-10-10 05:00:00,53.5,49.1,30.02,SSE,156,0.0,0.0,85,0.00,CLR,,0.00,WeatherDisplay:10.37,2013-10-10 10:00:00,
2013-10-10 05:05:00,53.5,49.1,30.02,SSE,156,0.0,0.0,85,0.00,CLR,,0.00,WeatherDisplay:10.37,2013-10-10 10:05:00,
2013-10-10 05:10:00,53.3,48.9,30.02,SSE,156,0.0,0.0,85,0.00,CLR,,0.00,WeatherDisplay:10.37,2013-10-10 10:10:00,
2013-10-10 05:15:00,53.3,48.9,30.02,SSE,156,0.0,0.0,85,0.00,CLR,,0.00,WeatherDisplay:10.37,2013-10-10 10:15:00,
2013-10-10 05:20:00,53.2,48.8,30.02,SSE,156,0.0,0.0,85,0.00,CLR,,0.00,WeatherDisplay:10.37,2013-10-10 10:20:00,
2013-10-10 05:25:00,53.0,48.6,30.02,SSE,156,0.0,0.0,85,0.00,CLR,,0.00,WeatherDisplay:10.37,2013-10-10 10:25:00,
2013-10-10 05:30:00,52.8,48.7,30.02,SSE,156,0.0,0.0,86,0.00,CLR,,0.00,WeatherDisplay:10.37,2013-10-10 10:30:00,
2013-10-10 05:35:00,52.6,48.5,30.02,SSE,156,0.0,0.0,86,0.00,CLR,,0.00,WeatherDisplay:10.37,2013-10-10 10:35:00,
2013-10-10 05:40:00,52.4,48.6,30.02,SSE,156,0.0,0.0,87,0.00,CLR,,0.00,WeatherDisplay:10.37,2013-10-10 10:40:00,
2013-10-10 05:45:00,52.3,48.5,30.02,SSE,156,0.0,0.0,87,0.00,CLR,,0.00,WeatherDisplay:10.37,2013-10-10 10:45:00,
2013-10-10 05:50:00,52.2,48.8,30.02,SSE,156,0.0,0.0,88,0.00,CLR,,0.00,WeatherDisplay:10.37,2013-10-10 10:50:00,
2013-10-10 05:55:00,52.2,48.4,30.02,SSE,156,0.0,0.0,87,0.00,CLR,,0.00,WeatherDisplay:10.37,2013-10-10 10:55:00,
2013-10-10 06:00:00,52.2,48.4,30.02,SSE,156,0.0,0.0,87,0.00,CLR,,0.00,WeatherDisplay:10.37,2013-10-10 11:00:00,
2013-10-10 06:05:00,52.3,48.9,30.02,SSE,156,0.0,0.0,88,0.00,CLR,,0.00,WeatherDisplay:10.37,2013-10-10 11:05:00,
2013-10-10 06:10:00,52.3,48.9,30.02,SSE,156,0.0,0.0,88,0.00,CLR,,0.00,WeatherDisplay:10.37,2013-10-10 11:10:00,
2013-10-10 06:15:00,52.3,48.5,30.02,SSE,156,0.0,0.0,87,0.00,CLR,,0.00,WeatherDisplay:10.37,2013-10-10 11:15:00,
2013-10-10 06:20:00,52.2,48.4,30.02,SSE,156,0.0,0.0,87,0.00,CLR,,0.00,WeatherDisplay:10.37,2013-10-10 11:20:00,
2013-10-10 06:25:00,52.1,48.7,30.02,SSE,156,0.0,0.0,88,0.00,CLR,,0.00,WeatherDisplay:10.37,2013-10-10 11:25:00,
2013-10-10 06:30:00,52.2,48.8,30.02,SSE,148,0.0,0.0,88,0.00,CLR,,0.00,WeatherDisplay:10.37,2013-10-10 11:30:00,
2013-10-10 06:35:00,52.6,48.8,30.01,SE,142,0.0,0.0,87,0.00,CLR,,0.00,WeatherDisplay:10.37,2013-10-10 11:35:00,
2013-10-10 06:40:00,53.0,49.2,30.01,SE,142,0.0,0.0,87,0.00,CLR,,0.00,WeatherDisplay:10.37,2013-10-10 11:40:00,
2013-10-10 06:45:00,53.2,49.1,30.01,SE,142,0.0,0.0,86,0.00,CLR,,0.00,WeatherDisplay:10.37,2013-10-10 11:45:00,
2013-10-10 06:50:00,53.7,49.3,30.01,ESE,120,0.3,1.2,85,0.00,CLR,,0.00,WeatherDisplay:10.37,2013-10-10 11:50:00,
2013-10-10 06:55:00,54.0,49.6,30.01,SE,130,0.2,1.2,85,0.00,CLR,,0.00,WeatherDisplay:10.37,2013-10-10 11:55:00,
2013-10-10 07:00:00,54.2,49.5,30.01,South,180,0.0,0.0,84,0.00,CLR,,0.00,WeatherDisplay:10.37,2013-10-10 12:00:00,
2013-10-10 07:05:00,54.3,49.6,30.01,SE,126,0.0,0.0,84,0.00,CLR,,0.00,WeatherDisplay:10.37,2013-10-10 12:05:00,
2013-10-10 07:10:00,54.4,49.7,30.01,ESE,120,0.0,1.2,84,0.00,CLR,,0.00,WeatherDisplay:10.37,2013-10-10 12:10:00,
2013-10-10 07:15:00,54.5,49.8,30.01,SE,126,0.0,1.2,84,0.00,CLR,,0.00,WeatherDisplay:10.37,2013-10-10 12:15:00,
2013-10-10 07:20:00,54.6,49.9,30.01,SE,130,0.4,1.2,84,0.00,CLR,,0.00,WeatherDisplay:10.37,2013-10-10 12:20:00,
2013-10-10 07:25:00,54.6,49.9,30.01,ESE,119,0.0,0.0,84,0.00,CLR,,0.00,WeatherDisplay:10.37,2013-10-10 12:25:00,
2013-10-10 07:30:00,54.5,49.8,30.01,SSE,162,0.0,0.0,84,0.00,CLR,,0.00,WeatherDisplay:10.37,2013-10-10 12:30:00,
2013-10-10 07:35:00,54.4,49.7,30.02,SSE,150,0.0,0.0,84,0.00,CLR,,0.00,WeatherDisplay:10.37,2013-10-10 12:35:00,
2013-10-10 07:40:00,54.3,49.6,30.02,East,100,0.1,1.2,84,0.00,CLR,,0.00,WeatherDisplay:10.37,2013-10-10 12:40:00,
2013-10-10 07:45:00,54.3,49.9,30.02,East,101,0.0,0.0,85,0.00,CLR,,0.00,WeatherDisplay:10.37,2013-10-10 12:45:00,
2013-10-10 07:50:00,54.2,49.8,30.02,East,101,0.0,0.0,85,0.00,CLR,,0.00,WeatherDisplay:10.37,2013-10-10 12:50:00,
2013-10-10 07:55:00,54.2,49.8,30.02,East,101,0.1,1.2,85,0.00,CLR,,0.00,WeatherDisplay:10.37,2013-10-10 12:55:00,
2013-10-10 08:00:00,54.1,49.7,30.02,East,101,0.0,0.0,85,0.00,CLR,,0.00,WeatherDisplay:10.37,2013-10-10 13:00:00,
2013-10-10 08:05:00,54.1,50.0,30.02,East,101,0.0,1.2,86,0.00,CLR,,0.00,WeatherDisplay:10.37,2013-10-10 13:05:00,
2013-10-10 08:10:00,54.3,50.2,30.02,SSE,158,0.0,0.0,86,0.00,CLR,,0.00,WeatherDisplay:10.37,2013-10-10 13:10:00,
2013-10-10 08:15:00,54.3,50.2,30.02,South,189,0.0,0.0,86,0.00,CLR,,0.00,WeatherDisplay:10.37,2013-10-10 13:15:00,
2013-10-10 08:20:00,54.4,50.3,30.03,South,188,0.0,0.0,86,0.00,CLR,,0.00,WeatherDisplay:10.37,2013-10-10 13:20:00,
2013-10-10 08:25:00,54.6,50.5,30.03,South,174,0.0,0.0,86,0.00,CLR,,0.00,WeatherDisplay:10.37,2013-10-10 13:25:00,
2013-10-10 08:30:00,55.0,50.9,30.03,South,176,0.1,1.2,86,0.00,CLR,,0.00,WeatherDisplay:10.37,2013-10-10 13:30:00,
2013-10-10 08:35:00,55.5,51.1,30.02,WSW,239,0.0,0.0,85,0.00,CLR,,0.00,WeatherDisplay:10.37,2013-10-10 13:35:00,
2013-10-10 08:40:00,55.8,51.0,30.03,ESE,119,0.1,1.2,84,0.00,CLR,,0.00,WeatherDisplay:10.37,2013-10-10 13:40:00,
2013-10-10 08:45:00,56.1,51.7,30.03,East,86,0.0,1.2,85,0.00,CLR,,0.00,WeatherDisplay:10.37,2013-10-10 13:45:00,
2013-10-10 08:50:00,56.4,51.6,30.03,SSE,163,0.0,0.0,84,0.00,CLR,,0.00,WeatherDisplay:10.37,2013-10-10 13:50:00,
2013-10-10 08:55:00,56.9,52.1,30.03,SE,144,0.0,1.2,84,0.00,CLR,,0.00,WeatherDisplay:10.37,2013-10-10 13:55:00,
2013-10-10 08:56:00,57.0,52.2,30.03,South,169,0.3,1.2,84,0.00,CLR,,0.00,WeatherDisplay:10.37,2013-10-10 13:56:00,
2013-10-10 09:00:00,57.0,52.2,30.03,South,169,0.3,1.2,84,0.00,CLR,,0.00,WeatherDisplay:10.37,2013-10-10 14:00:00,
2013-10-10 09:05:00,57.0,52.2,30.03,South,169,0.3,1.2,84,0.00,CLR,,0.00,WeatherDisplay:10.37,2013-10-10 14:05:00,
2013-10-10 09:53:00,57.0,52.2,30.03,South,169,0.3,1.2,84,0.00,CLR,,0.00,WeatherDisplay:10.37,2013-10-10 14:53:00,
2013-10-10 09:58:00,57.0,52.2,30.03,South,169,0.3,1.2,84,0.00,CLR,,0.00,WeatherDisplay:10.37,2013-10-10 14:58:00,
2013-10-10 10:01:00,63.7,55.3,30.02,SSE,160,0.8,1.2,74,0.00,CLR,,0.00,WeatherDisplay:10.37,2013-10-10 15:01:00,
2013-10-10 10:03:00,63.7,55.3,30.02,SSE,160,0.8,1.2,74,0.00,CLR,,0.00,WeatherDisplay:10.37,2013-10-10 15:03:00,
2013-10-10 10:08:00,63.7,55.3,30.02,SSE,160,0.8,1.2,74,0.00,CLR,,0.00,WeatherDisplay:10.37,2013-10-10 15:08:00,
2013-10-10 11:00:00,63.7,55.3,30.02,SSE,160,0.8,1.2,74,0.00,CLR,,0.00,WeatherDisplay:10.37,2013-10-10 16:00:00,
2013-10-10 11:05:00,63.7,55.3,30.02,SSE,160,0.8,1.2,74,0.00,CLR,,0.00,WeatherDisplay:10.37,2013-10-10 16:05:00,
2013-10-10 11:10:00,70.3,57.5,30.01,SSE,147,1.9,5.8,64,0.00,CLR,,0.00,WeatherDisplay:10.37,2013-10-10 16:10:00,
2013-10-10 11:15:00,70.5,57.7,30.01,SSE,153,1.4,3.5,64,0.00,CLR,,0.00,WeatherDisplay:10.37,2013-10-10 16:15:00,
2013-10-10 11:20:00,70.7,57.9,30.01,SE,144,1.6,2.3,64,0.00,CLR,,0.00,WeatherDisplay:10.37,2013-10-10 16:20:00,
2013-10-10 11:25:00,71.2,58.4,30.00,SE,127,0.5,2.3,64,0.00,CLR,,0.00,WeatherDisplay:10.37,2013-10-10 16:25:00,
2013-10-10 11:30:00,71.7,58.0,30.01,SE,130,0.8,3.5,62,0.00,CLR,,0.00,WeatherDisplay:10.37,2013-10-10 16:30:00,
2013-10-10 11:35:00,72.2,58.9,30.00,ESE,117,0.9,3.5,63,0.00,CLR,,0.00,WeatherDisplay:10.37,2013-10-10 16:35:00,
2013-10-10 11:40:00,72.6,58.4,30.00,WSW,245,0.9,3.0,61,0.00,CLR,,0.00,WeatherDisplay:10.37,2013-10-10 16:40:00,
2013-10-10 11:45:00,73.0,58.3,30.00,ESE,109,1.7,3.5,60,0.00,CLR,,0.00,WeatherDisplay:10.37,2013-10-10 16:45:00,
2013-10-10 11:50:00,73.3,58.1,30.00,SE,138,2.1,3.5,59,0.00,CLR,,0.00,WeatherDisplay:10.37,2013-10-10 16:50:00,
2013-10-10 11:55:00,73.5,57.8,30.00,SW,221,1.3,3.5,58,0.00,CLR,,0.00,WeatherDisplay:10.37,2013-10-10 16:55:00,
2013-10-10 12:00:00,73.8,57.6,30.00,SSW,193,1.3,4.6,57,0.00,CLR,,0.00,WeatherDisplay:10.37,2013-10-10 17:00:00,
2013-10-10 12:05:00,74.1,58.9,29.99,SE,139,0.2,2.3,59,0.00,CLR,,0.00,WeatherDisplay:10.37,2013-10-10 17:05:00,
2013-10-10 12:10:00,74.6,58.4,29.99,SSE,167,2.2,3.5,57,0.00,CLR,,0.00,WeatherDisplay:10.37,2013-10-10 17:10:00,
2013-10-10 12:15:00,74.8,58.5,29.99,South,180,1.4,3.5,57,0.00,CLR,,0.00,WeatherDisplay:10.37,2013-10-10 17:15:00,
2013-10-10 12:20:00,75.1,57.8,29.99,SW,214,2.8,3.5,55,0.00,CLR,,0.00,WeatherDisplay:10.37,2013-10-10 17:20:00,
2013-10-10 12:25:00,75.1,58.3,29.98,SE,140,1.4,3.5,56,0.00,CLR,,0.00,WeatherDisplay:10.37,2013-10-10 17:25:00,
2013-10-10 12:30:00,75.4,58.6,29.98,SSE,162,2.4,4.6,56,0.00,CLR,,0.00,WeatherDisplay:10.37,2013-10-10 17:30:00,
2013-10-10 12:35:00,75.5,58.2,29.98,SSE,167,2.5,3.5,55,0.00,CLR,,0.00,WeatherDisplay:10.37,2013-10-10 17:35:00,
2013-10-10 12:40:00,75.7,58.4,29.98,SE,144,1.6,3.5,55,0.00,CLR,,0.00,WeatherDisplay:10.37,2013-10-10 17:40:00,
2013-10-10 12:45:00,75.5,57.7,29.97,ESE,120,2.5,3.5,54,0.00,CLR,,0.00,WeatherDisplay:10.37,2013-10-10 17:45:00,
2013-10-10 12:50:00,75.6,58.3,29.97,SE,135,1.3,4.6,55,0.00,CLR,,0.00,WeatherDisplay:10.37,2013-10-10 17:50:00,
2013-10-10 12:55:00,76.0,58.7,29.97,East,94,1.4,2.3,55,0.00,CLR,,0.00,WeatherDisplay:10.37,2013-10-10 17:55:00,
2013-10-10 13:00:00,76.3,58.4,29.97,ESE,122,2.0,2.3,54,0.00,CLR,,0.00,WeatherDisplay:10.37,2013-10-10 18:00:00,
2013-10-10 13:05:00,76.5,59.1,29.97,SSW,212,1.9,4.0,55,0.00,CLR,,0.00,WeatherDisplay:10.37,2013-10-10 18:05:00,
2013-10-10 13:10:00,76.7,58.8,29.97,SE,136,1.3,3.5,54,0.00,CLR,,0.00,WeatherDisplay:10.37,2013-10-10 18:10:00,
2013-10-10 13:15:00,76.6,58.2,29.96,ESE,120,2.7,11.5,53,0.00,CLR,,0.00,WeatherDisplay:10.37,2013-10-10 18:15:00,
2013-10-10 13:20:00,76.5,58.1,29.96,SSW,202,2.5,4.6,53,0.00,CLR,,0.00,WeatherDisplay:10.37,2013-10-10 18:20:00,
2013-10-10 13:25:00,76.7,58.3,29.96,SE,145,2.0,3.0,53,0.00,CLR,,0.00,WeatherDisplay:10.37,2013-10-10 18:25:00,
2013-10-10 13:30:00,77.0,58.6,29.95,East,82,1.8,4.0,53,0.00,CLR,,0.00,WeatherDisplay:10.37,2013-10-10 18:30:00,
2013-10-10 13:35:00,77.0,58.6,29.95,SSE,159,1.1,5.8,53,0.00,CLR,,0.00,WeatherDisplay:10.37,2013-10-10 18:35:00,
2013-10-10 13:40:00,77.1,58.6,29.94,SSE,165,0.9,3.5,53,0.00,CLR,,0.00,WeatherDisplay:10.37,2013-10-10 18:40:00,
2013-10-10 13:45:00,77.5,58.5,29.94,East,89,2.8,3.5,52,0.00,CLR,,0.00,WeatherDisplay:10.37,2013-10-10 18:45:00,
2013-10-10 13:50:00,77.5,59.0,29.94,SE,141,0.3,3.5,53,0.00,CLR,,0.00,WeatherDisplay:10.37,2013-10-10 18:50:00,
2013-10-10 13:55:00,77.5,58.5,29.94,SE,136,2.3,5.8,52,0.00,CLR,,0.00,WeatherDisplay:10.37,2013-10-10 18:55:00,
2013-10-10 14:00:00,77.7,59.7,29.93,East,96,0.8,3.5,54,0.00,CLR,,0.00,WeatherDisplay:10.37,2013-10-10 19:00:00,
2013-10-10 14:05:00,78.1,59.0,29.93,ESE,110,1.5,3.5,52,0.00,CLR,,0.00,WeatherDisplay:10.37,2013-10-10 19:05:00,
2013-10-10 14:10:00,78.1,58.5,29.93,SSE,152,1.0,3.5,51,0.00,CLR,,0.00,WeatherDisplay:10.37,2013-10-10 19:10:00,
2013-10-10 14:15:00,78.1,57.9,29.93,SSW,199,2.0,3.5,50,0.00,CLR,,0.00,WeatherDisplay:10.37,2013-10-10 19:15:00,
2013-10-10 14:20:00,78.1,58.5,29.92,SSW,202,0.9,2.3,51,0.00,CLR,,0.00,WeatherDisplay:10.37,2013-10-10 19:20:00,
2013-10-10 14:25:00,78.4,58.8,29.92,ESE,114,3.7,7.0,51,0.00,CLR,,0.00,WeatherDisplay:10.37,2013-10-10 19:25:00,
2013-10-10 14:30:00,78.1,57.9,29.92,East,84,1.9,3.5,50,0.00,CLR,,0.00,WeatherDisplay:10.37,2013-10-10 19:30:00,
2013-10-10 14:35:00,78.2,58.6,29.92,SSW,194,1.3,3.5,51,0.00,CLR,,0.00,WeatherDisplay:10.37,2013-10-10 19:35:00,
2013-10-10 14:40:00,78.4,58.2,29.91,ESE,103,2.3,3.5,50,0.00,CLR,,0.00,WeatherDisplay:10.37,2013-10-10 19:40:00,
2013-10-10 14:45:00,78.6,59.0,29.91,SE,141,2.0,3.5,51,0.00,CLR,,0.00,WeatherDisplay:10.37,2013-10-10 19:45:00,
2013-10-10 14:50:00,78.9,59.8,29.91,SE,136,1.6,2.3,52,0.00,CLR,,0.00,WeatherDisplay:10.37,2013-10-10 19:50:00,
2013-10-10 14:55:00,78.9,57.5,29.91,ESE,120,3.8,5.8,48,0.00,CLR,,0.00,WeatherDisplay:10.37,2013-10-10 19:55:00,
2013-10-10 15:00:00,78.5,57.7,29.91,SE,142,2.1,6.9,49,0.00,CLR,,0.00,WeatherDisplay:10.37,2013-10-10 20:00:00,
2013-10-10 15:05:00,78.5,57.7,29.91,WSW,244,1.8,3.5,49,0.00,CLR,,0.00,WeatherDisplay:10.37,2013-10-10 20:05:00,
2013-10-10 15:10:00,78.5,57.7,29.90,SE,124,2.3,3.5,49,0.00,CLR,,0.00,WeatherDisplay:10.37,2013-10-10 20:10:00,
2013-10-10 15:15:00,78.8,58.6,29.90,SE,124,1.1,2.3,50,0.00,CLR,,0.00,WeatherDisplay:10.37,2013-10-10 20:15:00,
2013-10-10 15:20:00,79.0,58.8,29.90,SSW,198,1.1,3.5,50,0.00,CLR,,0.00,WeatherDisplay:10.37,2013-10-10 20:20:00,
2013-10-10 15:25:00,79.1,58.3,29.90,WSW,237,0.5,3.5,49,0.00,CLR,,0.00,WeatherDisplay:10.37,2013-10-10 20:25:00,
2013-10-10 15:30:00,78.8,58.0,29.90,ESE,123,3.3,5.8,49,0.00,CLR,,0.00,WeatherDisplay:10.37,2013-10-10 20:30:00,
2013-10-10 15:31:00,78.8,58.6,29.90,ESE,121,1.7,5.8,50,0.00,CLR,,0.00,WeatherDisplay:10.37,2013-10-10 20:31:00,
2013-10-10 15:36:00,78.8,58.6,29.90,ESE,107,1.1,3.5,50,0.00,CLR,,0.00,WeatherDisplay:10.37,2013-10-10 20:36:00,
2013-10-10 15:41:00,78.9,58.1,29.90,SSE,149,1.0,2.3,49,0.00,CLR,,0.00,WeatherDisplay:10.37,2013-10-10 20:41:00,
2013-10-10 15:46:00,78.9,57.5,29.90,ESE,103,3.2,5.8,48,0.00,CLR,,0.00,WeatherDisplay:10.37,2013-10-10 20:46:00,
2013-10-10 15:51:00,78.9,58.1,29.89,ESE,115,2.4,4.6,49,0.00,CLR,,0.00,WeatherDisplay:10.37,2013-10-10 20:51:00,
2013-10-10 15:56:00,79.0,58.2,29.89,West,272,1.9,3.5,49,0.00,CLR,,0.00,WeatherDisplay:10.37,2013-10-10 20:56:00,
2013-10-10 16:01:00,79.0,58.2,29.89,WSW,243,2.3,3.5,49,0.00,CLR,,0.00,WeatherDisplay:10.37,2013-10-10 21:01:00,
2013-10-10 16:06:00,79.0,57.6,29.89,SE,143,0.5,4.0,48,0.00,CLR,,0.00,WeatherDisplay:10.37,2013-10-10 21:06:00,
2013-10-10 16:11:00,78.9,58.1,29.89,SSE,161,2.1,3.5,49,0.00,CLR,,0.00,WeatherDisplay:10.37,2013-10-10 21:11:00,
2013-10-10 16:16:00,78.7,56.8,29.88,SSE,156,2.4,3.5,47,0.00,CLR,,0.00,WeatherDisplay:10.37,2013-10-10 21:16:00,
2013-10-10 16:21:00,78.6,57.3,29.89,SE,134,2.0,4.0,48,0.00,CLR,,0.00,WeatherDisplay:10.37,2013-10-10 21:21:00,
2013-10-10 16:26:00,78.6,57.3,29.88,SW,227,1.7,3.5,48,0.00,CLR,,0.00,WeatherDisplay:10.37,2013-10-10 21:26:00,
2013-10-10 16:31:00,78.5,57.2,29.88,SW,220,1.8,3.5,48,0.00,CLR,,0.00,WeatherDisplay:10.37,2013-10-10 21:31:00,
2013-10-10 16:36:00,78.5,57.7,29.88,SSW,207,1.2,3.5,49,0.00,CLR,,0.00,WeatherDisplay:10.37,2013-10-10 21:36:00,
2013-10-10 16:41:00,78.6,56.7,29.88,SSE,148,2.6,4.6,47,0.00,CLR,,0.00,WeatherDisplay:10.37,2013-10-10 21:41:00,
2013-10-10 16:46:00,78.5,57.2,29.88,SE,140,1.4,3.5,48,0.00,CLR,,0.00,WeatherDisplay:10.37,2013-10-10 21:46:00,
2013-10-10 16:51:00,78.4,57.1,29.88,East,100,2.6,5.8,48,0.00,CLR,,0.00,WeatherDisplay:10.37,2013-10-10 21:51:00,
2013-10-10 16:56:00,78.4,57.1,29.88,SE,125,1.1,3.5,48,0.00,CLR,,0.00,WeatherDisplay:10.37,2013-10-10 21:56:00,
2013-10-10 17:01:00,78.3,57.0,29.88,SSW,207,1.6,3.5,48,0.00,CLR,,0.00,WeatherDisplay:10.37,2013-10-10 22:01:00,
2013-10-10 17:06:00,78.2,56.3,29.88,East,94,2.8,4.6,47,0.00,CLR,,0.00,WeatherDisplay:10.37,2013-10-10 22:06:00,
2013-10-10 17:11:00,78.1,57.4,29.87,SE,126,1.1,2.3,49,0.00,CLR,,0.00,WeatherDisplay:10.37,2013-10-10 22:11:00,
2013-10-10 17:16:00,78.0,57.3,29.87,ESE,113,1.6,3.5,49,0.00,CLR,,0.00,WeatherDisplay:10.37,2013-10-10 22:16:00,
2013-10-10 17:21:00,78.0,56.7,29.87,SSW,207,1.5,2.3,48,0.00,CLR,,0.00,WeatherDisplay:10.37,2013-10-10 22:21:00,
2013-10-10 17:26:00,78.1,56.2,29.87,SW,221,1.5,5.0,47,0.00,CLR,,0.00,WeatherDisplay:10.37,2013-10-10 22:26:00,
2013-10-10 17:31:00,78.2,56.9,29.87,SSE,162,0.3,1.2,48,0.00,CLR,,0.00,WeatherDisplay:10.37,2013-10-10 22:31:00,
2013-10-10 17:36:00,78.1,56.8,29.87,SE,124,1.6,2.3,48,0.00,CLR,,0.00,WeatherDisplay:10.37,2013-10-10 22:36:00,
2013-10-10 17:41:00,77.9,56.6,29.87,SSE,148,1.2,3.5,48,0.00,CLR,,0.00,WeatherDisplay:10.37,2013-10-10 22:41:00,
2013-10-10 17:46:00,77.7,56.4,29.86,SSE,157,0.8,2.3,48,0.00,CLR,,0.00,WeatherDisplay:10.37,2013-10-10 22:46:00,
2013-10-10 17:51:00,77.4,56.7,29.86,SSE,150,0.9,3.5,49,0.00,CLR,,0.00,WeatherDisplay:10.37,2013-10-10 22:51:00,
2013-10-10 17:56:00,77.2,56.6,29.86,SSW,207,1.6,2.3,49,0.00,CLR,,0.00,WeatherDisplay:10.37,2013-10-10 22:56:00,
2013-10-10 18:01:00,76.9,56.8,29.87,SW,220,0.7,3.5,50,0.00,CLR,,0.00,WeatherDisplay:10.37,2013-10-10 23:01:00,
2013-10-10 18:06:00,76.6,56.6,29.87,SE,131,0.1,1.2,50,0.00,CLR,,0.00,WeatherDisplay:10.37,2013-10-10 23:06:00,
2013-10-10 18:11:00,76.4,56.4,29.86,NNW,328,2.6,3.5,50,0.00,CLR,,0.00,WeatherDisplay:10.37,2013-10-10 23:11:00,
2013-10-10 18:16:00,76.2,56.7,29.86,East,88,0.3,2.3,51,0.00,CLR,,0.00,WeatherDisplay:10.37,2013-10-10 23:16:00,
2013-10-10 18:21:00,75.8,56.9,29.86,ESE,109,0.6,1.2,52,0.00,CLR,,0.00,WeatherDisplay:10.37,2013-10-10 23:21:00,
2013-10-10 18:26:00,75.5,56.6,29.86,ESE,109,0.5,1.2,52,0.00,CLR,,0.00,WeatherDisplay:10.37,2013-10-10 23:26:00,
2013-10-10 18:31:00,75.1,56.8,29.86,SE,124,0.0,0.0,53,0.00,CLR,,0.00,WeatherDisplay:10.37,2013-10-10 23:31:00,
2013-10-10 18:36:00,74.8,56.5,29.86,ESE,108,0.6,3.5,53,0.00,CLR,,0.00,WeatherDisplay:10.37,2013-10-10 23:36:00,
2013-10-10 18:41:00,74.6,56.3,29.86,SE,141,0.7,2.0,53,0.00,CLR,,0.00,WeatherDisplay:10.37,2013-10-10 23:41:00,
2013-10-10 18:46:00,74.4,56.7,29.86,ESE,115,0.3,1.2,54,0.00,CLR,,0.00,WeatherDisplay:10.37,2013-10-10 23:46:00,
2013-10-10 18:51:00,74.0,56.8,29.86,ESE,117,0.5,1.2,55,0.00,CLR,,0.00,WeatherDisplay:10.37,2013-10-10 23:51:00,
2013-10-10 18:56:00,73.7,56.5,29.86,SE,134,0.3,1.2,55,0.00,CLR,,0.00,WeatherDisplay:10.37,2013-10-10 23:56:00,
2013-10-10 19:01:00,73.4,56.7,29.86,SE,130,0.2,1.2,56,0.00,CLR,,0.00,WeatherDisplay:10.37,2013-10-11 00:01:00,
2013-10-10 19:06:00,73.2,56.6,29.86,ESE,118,0.0,0.0,56,0.00,CLR,,0.00,WeatherDisplay:10.37,2013-10-11 00:06:00,
2013-10-10 19:11:00,72.8,56.2,29.86,ESE,117,1.0,3.5,56,0.00,CLR,,0.00,WeatherDisplay:10.37,2013-10-11 00:11:00,
2013-10-10 19:16:00,72.6,56.5,29.85,SSE,153,0.0,0.0,57,0.00,CLR,,0.00,WeatherDisplay:10.37,2013-10-11 00:16:00,
2013-10-10 19:21:00,72.3,56.2,29.86,ESE,107,0.0,1.2,57,0.00,CLR,,0.00,WeatherDisplay:10.37,2013-10-11 00:21:00,
2013-10-10 19:26:00,71.9,56.3,29.86,ESE,113,0.3,1.2,58,0.00,CLR,,0.00,WeatherDisplay:10.37,2013-10-11 00:26:00,
2013-10-10 19:30:00,71.8,56.2,29.86,SE,125,0.6,2.0,58,0.00,CLR,,0.00,WeatherDisplay:10.37,2013-10-11 00:30:00,
2013-10-10 19:31:00,71.8,56.2,29.86,SE,125,0.6,2.0,58,0.00,CLR,,0.00,WeatherDisplay:10.37,2013-10-11 00:31:00,
2013-10-10 19:36:00,71.8,56.2,29.86,SE,125,0.6,2.0,58,0.00,CLR,,0.00,WeatherDisplay:10.37,2013-10-11 00:36:00,
2013-10-10 20:27:00,71.8,56.2,29.86,SE,125,0.6,2.0,58,0.00,CLR,,0.00,WeatherDisplay:10.37,2013-10-11 01:27:00,
2013-10-10 20:32:00,71.8,56.2,29.86,SE,125,0.6,2.0,58,0.00,CLR,,0.00,WeatherDisplay:10.37,2013-10-11 01:32:00,
2013-10-10 20:37:00,68.5,56.3,29.86,SE,134,0.0,0.0,65,0.00,CLR,,0.00,WeatherDisplay:10.37,2013-10-11 01:37:00,
2013-10-10 20:42:00,68.2,56.0,29.86,SE,130,0.3,1.2,65,0.00,CLR,,0.00,WeatherDisplay:10.37,2013-10-11 01:42:00,
2013-10-10 20:47:00,67.9,56.1,29.85,ESE,118,0.1,1.2,66,0.00,CLR,,0.00,WeatherDisplay:10.37,2013-10-11 01:47:00,
2013-10-10 20:52:00,67.7,56.3,29.85,ESE,117,0.0,0.0,67,0.00,CLR,,0.00,WeatherDisplay:10.37,2013-10-11 01:52:00,
2013-10-10 20:57:00,67.4,56.1,29.85,ESE,117,0.4,1.2,67,0.00,CLR,,0.00,WeatherDisplay:10.37,2013-10-11 01:57:00,
2013-10-10 21:02:00,67.3,56.0,29.85,ESE,118,0.2,1.2,67,0.00,CLR,,0.00,WeatherDisplay:10.37,2013-10-11 02:02:00,
2013-10-10 21:07:00,67.1,56.2,29.86,SE,125,0.0,0.0,68,0.00,CLR,,0.00,WeatherDisplay:10.37,2013-10-11 02:07:00,
2013-10-10 21:12:00,66.8,55.9,29.86,ESE,122,0.4,1.2,68,0.00,CLR,,0.00,WeatherDisplay:10.37,2013-10-11 02:12:00,
2013-10-10 21:17:00,66.6,55.7,29.85,SE,131,0.4,1.2,68,0.00,CLR,,0.00,WeatherDisplay:10.37,2013-10-11 02:17:00,
2013-10-10 21:22:00,66.6,56.1,29.86,SE,137,0.2,2.0,69,0.00,CLR,,0.00,WeatherDisplay:10.37,2013-10-11 02:22:00,
2013-10-10 21:27:00,66.3,55.8,29.85,ESE,110,0.1,1.2,69,0.00,CLR,,0.00,WeatherDisplay:10.37,2013-10-11 02:27:00,
2013-10-10 21:32:00,66.0,55.9,29.86,ESE,111,0.5,1.2,70,0.00,CLR,,0.00,WeatherDisplay:10.37,2013-10-11 02:32:00,
2013-10-10 21:37:00,65.8,55.7,29.86,East,98,0.0,1.2,70,0.00,CLR,,0.00,WeatherDisplay:10.37,2013-10-11 02:37:00,
2013-10-10 21:42:00,65.7,55.6,29.86,SSE,163,0.0,0.0,70,0.00,CLR,,0.00,WeatherDisplay:10.37,2013-10-11 02:42:00,
2013-10-10 21:47:00,65.5,55.5,29.86,SE,127,0.0,0.0,70,0.00,CLR,,0.00,WeatherDisplay:10.37,2013-10-11 02:47:00,
2013-10-10 21:52:00,65.4,55.4,29.85,ESE,118,0.4,1.2,70,0.00,CLR,,0.00,WeatherDisplay:10.37,2013-10-11 02:52:00,
2013-10-10 21:57:00,65.5,55.5,29.85,ESE,116,0.4,0.0,70,0.00,CLR,,0.00,WeatherDisplay:10.37,2013-10-11 02:57:00,
2013-10-10 22:02:00,65.4,55.4,29.85,ESE,122,0.1,1.2,70,0.00,CLR,,0.00,WeatherDisplay:10.37,2013-10-11 03:02:00,
2013-10-10 22:07:00,65.6,55.5,29.84,ESE,103,0.5,1.2,70,0.00,CLR,,0.00,WeatherDisplay:10.37,2013-10-11 03:07:00,
2013-10-10 22:12:00,65.4,55.4,29.84,ESE,112,0.6,1.2,70,0.00,CLR,,0.00,WeatherDisplay:10.37,2013-10-11 03:12:00,
2013-10-10 22:17:00,65.3,55.3,29.84,ESE,110,0.4,1.2,70,0.00,CLR,,0.00,WeatherDisplay:10.37,2013-10-11 03:17:00,
2013-10-10 22:22:00,65.1,55.1,29.84,ESE,120,0.8,2.0,70,0.00,CLR,,0.00,WeatherDisplay:10.37,2013-10-11 03:22:00,
2013-10-10 22:27:00,65.0,55.0,29.83,SE,140,0.0,1.2,70,0.00,CLR,,0.00,WeatherDisplay:10.37,2013-10-11 03:27:00,
2013-10-10 22:32:00,64.9,54.9,29.83,SE,127,0.8,3.5,70,0.00,CLR,,0.00,WeatherDisplay:10.37,2013-10-11 03:32:00,
2013-10-10 22:38:00,64.9,54.9,29.83,SE,126,0.8,4.0,70,0.00,CLR,,0.00,WeatherDisplay:10.37,2013-10-11 03:38:00,
2013-10-10 22:43:00,64.9,54.9,29.83,ESE,113,0.8,2.3,70,0.00,CLR,,0.00,WeatherDisplay:10.37,2013-10-11 03:43:00,
2013-10-10 22:48:00,64.8,55.2,29.82,SE,128,0.4,2.3,71,0.00,CLR,,0.00,WeatherDisplay:10.37,2013-10-11 03:48:00,
2013-10-10 22:53:00,64.6,55.0,29.82,ESE,118,1.8,3.5,71,0.00,CLR,,0.00,WeatherDisplay:10.37,2013-10-11 03:53:00,
2013-10-10 22:58:00,64.5,54.9,29.82,East,93,0.5,1.2,71,0.00,CLR,,0.00,WeatherDisplay:10.37,2013-10-11 03:58:00,
2013-10-10 23:01:00,64.4,55.2,29.82,ESE,122,0.7,3.5,72,0.00,CLR,,0.00,WeatherDisplay:10.37,2013-10-11 04:01:00,
2013-10-10 23:06:00,64.3,55.1,29.83,ESE,120,0.2,1.2,72,0.00,CLR,,0.00,WeatherDisplay:10.37,2013-10-11 04:06:00,
2013-10-10 23:11:00,64.1,55.3,29.83,SE,137,0.0,0.0,73,0.00,CLR,,0.00,WeatherDisplay:10.37,2013-10-11 04:11:00,
2013-10-10 23:16:00,63.8,55.0,29.83,SE,133,0.0,0.0,73,0.00,CLR,,0.00,WeatherDisplay:10.37,2013-10-11 04:16:00,
2013-10-10 23:21:00,63.5,55.1,29.83,SE,128,0.3,1.2,74,0.00,CLR,,0.00,WeatherDisplay:10.37,2013-10-11 04:21:00,
2013-10-10 23:26:00,63.3,55.2,29.84,SE,131,0.0,0.0,75,0.00,CLR,,0.00,WeatherDisplay:10.37,2013-10-11 04:26:00,
2013-10-10 23:31:00,63.0,54.9,29.84,ESE,122,0.3,1.2,75,0.00,CLR,,0.00,WeatherDisplay:10.37,2013-10-11 04:31:00,
2013-10-10 23:36:00,62.9,55.2,29.84,SE,143,0.3,1.2,76,0.00,CLR,,0.00,WeatherDisplay:10.37,2013-10-11 04:36:00,
2013-10-10 23:41:00,62.7,55.0,29.84,SE,136,0.6,2.3,76,0.00,CLR,,0.00,WeatherDisplay:10.37,2013-10-11 04:41:00,
2013-10-10 23:46:00,62.6,54.9,29.84,ESE,116,0.0,0.0,76,0.00,CLR,,0.00,WeatherDisplay:10.37,2013-10-11 04:46:00,
2013-10-10 23:51:00,62.5,55.2,29.84,ESE,117,0.0,1.2,77,0.00,CLR,,0.00,WeatherDisplay:10.37,2013-10-11 04:51:00,
2013-10-10 23:56:00,62.4,55.1,29.84,ESE,110,0.0,0.0,77,0.00,CLR,,0.00,WeatherDisplay:10.37,2013-10-11 04:56:00,